User: anonymous   Login
Location: Unspecified
(0.0000°N, 0.0000°E)
Time: 22:16:49
(UTC+02:00)
Language:

Cosmos 2251 - Orbit

View from above orbital plane
View from above orbital plane
View from above satellite
View from above satellite

Ground track
Ground track

The orbit data is extracted from the following two-line orbital elements,

1 22675U 93036A   15212.87608454  .00000004  00000-0  11109-4 0  9996
2 22675 074.0390 028.5804 0025777 313.0553 149.0436 14.32436681155761
Epoch (UTC): 31 July 2015 21:01:33
Eccentricity: 0.0025777
inclination: 74.0390°
perigee height: 765 km
apogee height: 802 km
right ascension of ascending node: 28.5804°
argument of perigee: 313.0553°
revolutions per day: 14.32436681
mean anomaly at epoch: 149.0436°
orbit number at epoch: 15576

The dashed part of the orbit path shows where the satellite is in the earth's shadow,  

DLR